星链-4484 (STARLINK-4484 )

导读 | 豆包AI

STARLINK-4484是美国SpaceX公司星链(Starlink)星座中的卫星,于2022年8月10日发射。作为低轨通信卫星,它运行于近地轨道,搭载Ku/Ka波段通信载荷,采用光学星间链路与相控阵技术,旨在全球提供宽带互联网服务。卫星具备自主避撞能力,寿命末期将主动离轨,在大气层中焚毁,减少空间碎片影响,服务全球网络覆盖需求。

Basic Information
目录编号:
53417
目录名称:
STARLINK-4484
国际标识:
2022-097AF
轨道中心:
EARTH
卫星名称:
星链-4484
卫星全名:
星链-4484 (STARLINK-4484 )
卫星状态:
在轨 (已飞行1359 天)
发射日期:
2022-08-10 UTC
国别 :
美国 (US)
星等 :
--
Orbit Information
数据来源 国际轨道数据 AOE轨道数据
星历时间 2026-04-29T23:01:40+0800
1天前
查看轨道信息
2026-04-25T09:00:00+0800
5天前
查看轨道信息
半长轴 6917.859km 6917.834km
偏心率 0.0001473 0.0001493
轨道倾角 53.218° 53.218°
近地点辐角 99.027° 76.472°
升交点赤经 245.454° 266.036°
平近点角 261.089° 207.962°
近地点 538.702km 538.664km
远地点 540.742km 540.73km
周期 95.437分钟 95.437分钟
每日圈数 15.088471 15.088553
Detailed Information
固有亮度:
5
最大亮度:
2.5
卫星平台:
Starlink v1.5
覆盖范围:
全球
运营商:
太空探索技术公司
运营商所在国:
美国
制造商(研发单位):
太空探索技术公司
制造商所在国:
美国
使用方式:
暂无
Satellite Introduction
星链(Starlink)计划是由太空探索技术公司(SpaceX)提出的一个巨型低轨卫星互联网星座项目,计划在2019年至2024年间在太空搭建由约1.2万颗卫星组成的“星链”网络,其中1584颗将部署在地球上空550千米处的近地轨道,并从2020年开始工作。该卫星仍在工作。
2D Orbit Map
3D Orbit Map
Orbit Altitude Analysis Chart
Orbit Inclination Analysis Chart
Orbit Comprehensive Analysis Chart
View Comprehensive Chart